| time (UTC) | temp F | wind direction | speed knots | gust knots | rain 1hr in | rain 24hr in | rain mn in | humidity % | barometer mb |
| 20260504034003 | 58 | 212 | 1.7 | 3.5 | 0.00 | 0.00 | 0.00 | 59 | 1004.8 |
| 20260504033505 | 58 | 243 | 0.9 | 4.3 | 0.00 | 0.00 | 0.00 | 59 | 1004.8 |
| 20260504033011 | 59 | 224 | 0.9 | 4.3 | 0.00 | 0.00 | 0.00 | 59 | 1004.9 |
| 20260504032503 | 59 | 236 | 0.9 | 3.5 | 0.00 | 0.00 | 0.00 | 58 | 1004.9 |
| 20260504032007 | 59 | 207 | 0.9 | 5.2 | 0.00 | 0.00 | 0.00 | 58 | 1005.0 |
| 20260504031510 | 60 | 250 | 0.9 | 5.2 | 0.00 | 0.00 | 0.00 | 57 | 1005.0 |
| 20260504031002 | 60 | 242 | 0.9 | 3.5 | 0.00 | 0.00 | 0.00 | 58 | 1005.0 |
| 20260504030505 | 60 | 245 | 0.9 | 5.2 | 0.00 | 0.00 | 0.00 | 58 | 1005.0 |
| 20260504030007 | 60 | 263 | 1.7 | 5.2 | 0.00 | 0.00 | 0.00 | 58 | 1005.0 |
| 20260504025503 | 60 | 227 | 0.9 | 5.2 | 0.00 | 0.00 | 0.00 | 58 | 1005.0 |
| 20260504025003 | 60 | 207 | 0.9 | 4.3 | 0.00 | 0.00 | 0.00 | 58 | 1005.0 |
| 20260504024518 | 60 | 229 | 0.9 | 5.2 | 0.00 | 0.00 | 0.00 | 58 | 1005.0 |
| 20260504024007 | 59 | 252 | 1.7 | 5.2 | 0.00 | 0.00 | 0.00 | 58 | 1005.0 |
| 20260504023507 | 59 | 211 | 1.7 | 4.3 | 0.00 | 0.00 | 0.00 | 58 | 1004.9 |
| 20260504023012 | 59 | 220 | 0.9 | 4.3 | 0.00 | 0.00 | 0.00 | 58 | 1004.9 |
| 20260504022504 | 59 | 256 | 2.6 | 4.3 | 0.00 | 0.00 | 0.00 | 58 | 1004.8 |
| 20260504022006 | 59 | 210 | 1.7 | 4.3 | 0.00 | 0.00 | 0.00 | 58 | 1004.9 |
| 20260504021511 | 60 | 198 | 0.9 | 3.5 | 0.00 | 0.00 | 0.00 | 57 | 1004.9 |
| 20260504021002 | 61 | 212 | 2.6 | 3.5 | 0.00 | 0.00 | 0.00 | 56 | 1004.8 |
| 20260504020503 | 60 | 229 | 0.9 | 3.5 | 0.00 | 0.00 | 0.00 | 57 | 1004.8 |
| 20260504020015 | 60 | 239 | 0.9 | 3.5 | 0.00 | 0.00 | 0.00 | 57 | 1004.8 |
| 20260504015507 | 60 | 216 | 1.7 | 3.5 | 0.00 | 0.00 | 0.00 | 57 | 1004.7 |
| 20260504015007 | 60 | 205 | 1.7 | 3.5 | 0.00 | 0.00 | 0.00 | 57 | 1004.7 |
| 20260504014514 | 59 | 231 | 0.9 | 3.5 | 0.00 | 0.00 | 0.00 | 58 | 1004.7 |
| 20260504014003 | 59 | 209 | 1.7 | 3.5 | 0.00 | 0.00 | 0.00 | 58 | 1004.6 |
| 20260504013503 | 59 | 169 | 1.7 | 2.6 | 0.00 | 0.00 | 0.00 | 57 | 1004.6 |
| 20260504013022 | 60 | 207 | 0.9 | 2.6 | 0.00 | 0.00 | 0.00 | 56 | 1004.6 |
| 20260504012504 | 60 | 212 | 0.9 | 1.7 | 0.00 | 0.00 | 0.00 | 55 | 1004.5 |
| 20260504012004 | 61 | 216 | 0.9 | 2.6 | 0.00 | 0.00 | 0.00 | 54 | 1004.5 |
| 20260504011513 | 61 | 223 | 0.9 | 2.6 | 0.00 | 0.00 | 0.00 | 53 | 1004.5 |
| 20260504011007 | 62 | 250 | 0.0 | 1.7 | 0.00 | 0.00 | 0.00 | 53 | 1004.4 |
| 20260504010503 | 62 | 238 | 0.0 | 1.7 | 0.00 | 0.00 | 0.00 | 52 | 1004.4 |
| 20260504010014 | 62 | 211 | 0.0 | 2.6 | 0.00 | 0.00 | 0.00 | 51 | 1004.4 |
| 20260504005506 | 63 | 229 | 0.0 | 2.6 | 0.00 | 0.00 | 0.00 | 50 | 1004.4 |
| 20260504005005 | 63 | 260 | 0.0 | 1.7 | 0.00 | 0.00 | 0.00 | 50 | 1004.4 |
| 20260504004516 | 63 | 255 | 0.0 | 2.6 | 0.00 | 0.00 | 0.00 | 49 | 1004.4 |
| 20260504004004 | 64 | 271 | 0.9 | 2.6 | 0.00 | 0.00 | 0.00 | 49 | 1004.5 |
| 20260504003506 | 64 | 261 | 0.0 | 2.6 | 0.00 | 0.00 | 0.00 | 48 | 1004.5 |
| 20260504003015 | 65 | 244 | 0.9 | 3.5 | 0.00 | 0.00 | 0.00 | 47 | 1004.5 |
| 20260504002503 | 65 | 260 | 0.9 | 3.5 | 0.00 | 0.00 | 0.00 | 47 | 1004.4 |
| 20260504002006 | 65 | 274 | 0.9 | 3.5 | 0.00 | 0.00 | 0.00 | 46 | 1004.4 |
| 20260504001515 | 66 | 276 | 0.9 | 7.0 | 0.00 | 0.00 | 0.00 | 45 | 1004.5 |
| 20260504001004 | 66 | 252 | 1.7 | 8.7 | 0.00 | 0.00 | 0.00 | 45 | 1004.5 |
| 20260504000505 | 66 | 282 | 1.7 | 8.7 | 0.00 | 0.00 | 0.00 | 44 | 1004.4 |
| 20260504000018 | 67 | 275 | 3.5 | 8.7 | 0.00 | 0.00 | 0.00 | 43 | 1004.4 |
| 20260503235503 | 66 | 295 | 2.6 | 8.7 | 0.00 | 0.00 | 0.00 | 44 | 1004.4 |
| 20260503235007 | 67 | 288 | 1.7 | 7.0 | 0.00 | 0.00 | 0.00 | 43 | 1004.4 |
| 20260503234508 | 67 | 292 | 2.6 | 7.0 | 0.00 | 0.00 | 0.00 | 43 | 1004.5 |
| 20260503234006 | 67 | 295 | 1.7 | 9.6 | 0.00 | 0.00 | 0.00 | 43 | 1004.5 |
| 20260503233505 | 67 | 269 | 3.5 | 9.6 | 0.00 | 0.00 | 0.00 | 43 | 1004.5 |
| 20260503233009 | 67 | 259 | 3.5 | 7.8 | 0.00 | 0.00 | 0.00 | 43 | 1004.5 |
| 20260503232506 | 67 | 280 | 2.6 | 7.8 | 0.00 | 0.00 | 0.00 | 43 | 1004.5 |
| 20260503232011 | 67 | 254 | 1.7 | 13.0 | 0.00 | 0.00 | 0.00 | 44 | 1004.6 |
| 20260503231518 | 67 | 265 | 5.2 | 13.0 | 0.00 | 0.00 | 0.00 | 42 | 1004.6 |
| 20260503231007 | 67 | 290 | 5.2 | 12.2 | 0.00 | 0.00 | 0.00 | 42 | 1004.7 |
| 20260503230508 | 67 | 264 | 4.3 | 13.0 | 0.00 | 0.00 | 0.00 | 41 | 1004.6 |
| 20260503230018 | 67 | 259 | 6.1 | 13.0 | 0.00 | 0.00 | 0.00 | 41 | 1004.7 |
| 20260503225504 | 67 | 281 | 6.1 | 11.3 | 0.00 | 0.00 | 0.00 | 41 | 1004.8 |
| 20260503225004 | 67 | 279 | 4.3 | 10.4 | 0.00 | 0.00 | 0.00 | 42 | 1004.7 |
| 20260503224507 | 68 | 288 | 3.5 | 10.4 | 0.00 | 0.00 | 0.00 | 42 | 1004.8 |
| 20260503224007 | 68 | 293 | 2.6 | 11.3 | 0.00 | 0.00 | 0.00 | 41 | 1004.8 |
| 20260503223507 | 68 | 231 | 4.3 | 11.3 | 0.00 | 0.00 | 0.00 | 41 | 1004.8 |
| 20260503223012 | 68 | 266 | 4.3 | 11.3 | 0.00 | 0.00 | 0.00 | 42 | 1004.8 |
| 20260503222502 | 67 | 267 | 3.5 | 9.6 | 0.00 | 0.00 | 0.00 | 44 | 1004.8 |
| 20260503222006 | 67 | 285 | 0.9 | 10.4 | 0.00 | 0.00 | 0.00 | 45 | 1004.8 |
| 20260503221528 | 67 | 262 | 4.3 | 11.3 | 0.00 | 0.00 | 0.00 | 42 | 1004.8 |
| 20260503221008 | 67 | 193 | 3.5 | 11.3 | 0.00 | 0.00 | 0.00 | 42 | 1004.8 |
| 20260503220508 | 67 | 193 | 3.5 | 9.6 | 0.00 | 0.00 | 0.00 | 44 | 1004.8 |
| 20260503220020 | 67 | 288 | 1.7 | 16.5 | 0.00 | 0.00 | 0.00 | 44 | 1004.8 |
| 20260503215504 | 67 | 231 | 6.1 | 13.9 | 0.00 | 0.00 | 0.00 | 44 | 1005.0 |
| 20260503215008 | 67 | 255 | 2.6 | 12.2 | 0.00 | 0.00 | 0.00 | 44 | 1005.0 |
| 20260503214524 | 67 | 219 | 4.3 | 12.2 | 0.00 | 0.00 | 0.00 | 44 | 1004.9 |
| 20260503214008 | 67 | 268 | 3.5 | 16.5 | 0.00 | 0.00 | 0.00 | 44 | 1005.0 |
| 20260503213502 | 66 | 305 | 5.2 | 16.5 | 0.00 | 0.00 | 0.00 | 44 | 1005.0 |
| 20260503213018 | 66 | 197 | 4.3 | 13.9 | 0.00 | 0.00 | 0.00 | 43 | 1005.3 |
| 20260503212503 | 66 | 262 | 5.2 | 13.9 | 0.00 | 0.00 | 0.00 | 42 | 1005.4 |
| 20260503212006 | 67 | 268 | 6.1 | 16.5 | 0.00 | 0.00 | 0.00 | 43 | 1005.4 |
| 20260503211518 | 66 | 222 | 3.5 | 16.5 | 0.00 | 0.00 | 0.00 | 43 | 1005.4 |
| 20260503211009 | 66 | 263 | 4.3 | 18.2 | 0.00 | 0.00 | 0.00 | 44 | 1005.5 |
| 20260503210506 | 65 | 194 | 5.2 | 18.2 | 0.00 | 0.00 | 0.00 | 45 | 1005.5 |
| 20260503210022 | 66 | 256 | 5.2 | 18.2 | 0.00 | 0.00 | 0.00 | 43 | 1005.7 |
| 20260503205507 | 66 | 259 | 3.5 | 18.2 | 0.00 | 0.00 | 0.00 | 44 | 1005.6 |
| 20260503205010 | 66 | 166 | 5.2 | 13.9 | 0.00 | 0.00 | 0.00 | 44 | 1005.7 |
| 20260503204525 | 66 | 233 | 5.2 | 21.7 | 0.00 | 0.00 | 0.00 | 45 | 1005.8 |
| 20260503204010 | 66 | 23 | 6.1 | 21.7 | 0.00 | 0.00 | 0.00 | 43 | 1006.1 |
| 20260503203507 | 66 | 274 | 5.2 | 18.2 | 0.00 | 0.00 | 0.00 | 44 | 1006.0 |
| 20260503203020 | 65 | 236 | 5.2 | 21.7 | 0.00 | 0.00 | 0.00 | 46 | 1006.2 |
| 20260503202505 | 65 | 214 | 3.5 | 21.7 | 0.00 | 0.00 | 0.00 | 49 | 1006.5 |
| 20260503202006 | 64 | 268 | 5.2 | 19.1 | 0.00 | 0.00 | 0.00 | 49 | 1006.5 |
| 20260503201525 | 64 | 280 | 7.8 | 20.9 | 0.00 | 0.00 | 0.00 | 48 | 1006.6 |
| 20260503201008 | 63 | 230 | 4.3 | 20.9 | 0.00 | 0.00 | 0.00 | 53 | 1006.7 |
| 20260503200506 | 63 | 250 | 6.1 | 18.2 | 0.00 | 0.00 | 0.00 | 50 | 1007.0 |
| 20260503200027 | 63 | 242 | 4.3 | 15.6 | 0.00 | 0.00 | 0.00 | 51 | 1007.1 |
| 20260503195507 | 63 | 243 | 4.3 | 20.9 | 0.00 | 0.00 | 0.00 | 49 | 1007.2 |
| 20260503195007 | 63 | 229 | 5.2 | 24.3 | 0.00 | 0.00 | 0.00 | 49 | 1007.5 |
| 20260503194527 | 62 | 218 | 6.1 | 24.3 | 0.00 | 0.00 | 0.00 | 50 | 1007.6 |
| 20260503194007 | 63 | 187 | 7.0 | 15.6 | 0.00 | 0.00 | 0.00 | 47 | 1007.6 |
| 20260503193506 | 63 | 222 | 2.6 | 14.8 | 0.00 | 0.00 | 0.00 | 48 | 1007.6 |
| 20260503193024 | 63 | 278 | 5.2 | 13.0 | 0.00 | 0.00 | 0.00 | 49 | 1007.7 |
| 20260503192509 | 62 | 167 | 4.3 | 13.9 | 0.00 | 0.00 | 0.00 | 48 | 1007.7 |
| 20260503192008 | 62 | 303 | 5.2 | 15.6 | 0.00 | 0.00 | 0.00 | 48 | 1007.8 |
| 20260503191515 | 62 | 234 | 4.3 | 23.5 | 0.00 | 0.00 | 0.00 | 50 | 1007.8 |
| 20260503191006 | 62 | 229 | 7.8 | 23.5 | 0.00 | 0.00 | 0.00 | 46 | 1007.7 |
| 20260503190506 | 62 | 205 | 6.1 | 20.9 | 0.00 | 0.00 | 0.00 | 45 | 1007.8 |
| 20260503190022 | 63 | 199 | 6.1 | 15.6 | 0.00 | 0.00 | 0.00 | 45 | 1007.6 |
| 20260503185507 | 62 | 206 | 5.2 | 19.1 | 0.00 | 0.00 | 0.00 | 45 | 1007.7 |
| 20260503185009 | 62 | 234 | 7.0 | 24.3 | 0.00 | 0.00 | 0.00 | 45 | 1007.6 |
| 20260503184526 | 62 | 197 | 8.7 | 24.3 | 0.00 | 0.00 | 0.00 | 48 | 1007.8 |
| 20260503184006 | 62 | 203 | 5.2 | 21.7 | 0.00 | 0.00 | 0.00 | 48 | 1007.8 |
| 20260503183515 | 61 | 191 | 2.6 | 21.7 | 0.00 | 0.00 | 0.00 | 49 | 1008.0 |
| 20260503183034 | 61 | 253 | 8.7 | 21.7 | 0.00 | 0.00 | 0.00 | 49 | 1008.1 |
| 20260503182507 | 61 | 214 | 7.0 | 20.0 | 0.00 | 0.00 | 0.00 | 47 | 1008.2 |
| 20260503182009 | 61 | 230 | 6.1 | 20.0 | 0.00 | 0.00 | 0.00 | 48 | 1008.1 |
| 20260503181535 | 60 | 202 | 6.1 | 20.0 | 0.00 | 0.00 | 0.00 | 49 | 1008.1 |
| 20260503181008 | 61 | 195 | 7.8 | 21.7 | 0.00 | 0.00 | 0.00 | 50 | 1008.3 |
| 20260503180504 | 60 | 175 | 6.1 | 22.6 | 0.00 | 0.00 | 0.00 | 51 | 1008.3 |
| 20260503180016 | 60 | 219 | 7.8 | 22.6 | 0.00 | 0.00 | 0.00 | 48 | 1008.5 |
| 20260503175503 | 60 | 210 | 5.2 | 20.9 | 0.00 | 0.00 | 0.00 | 53 | 1008.6 |
| 20260503175009 | 59 | 222 | 8.7 | 18.2 | 0.00 | 0.00 | 0.00 | 53 | 1008.7 |
| 20260503174521 | 59 | 178 | 6.1 | 20.9 | 0.00 | 0.00 | 0.00 | 54 | 1008.8 |
| 20260503174007 | 58 | 167 | 11.3 | 20.9 | 0.00 | 0.00 | 0.00 | 54 | 1009.1 |
| 20260503173509 | 58 | 220 | 11.3 | 20.0 | 0.00 | 0.00 | 0.00 | 56 | 1009.2 |
| 20260503173040 | 58 | 187 | 8.7 | 20.0 | 0.00 | 0.00 | 0.00 | 59 | 1009.3 |
| 20260503172506 | 58 | 294 | 4.3 | 14.8 | 0.00 | 0.00 | 0.00 | 58 | 1009.3 |
| 20260503172006 | 56 | 192 | 6.1 | 19.1 | 0.00 | 0.00 | 0.00 | 59 | 1009.6 |
| 20260503171524 | 56 | 231 | 9.6 | 19.1 | 0.00 | 0.00 | 0.00 | 57 | 1009.7 |
| 20260503171007 | 56 | 212 | 3.5 | 17.4 | 0.00 | 0.00 | 0.00 | 61 | 1009.9 |
| 20260503170508 | 55 | 153 | 8.7 | 17.4 | 0.00 | 0.00 | 0.00 | 60 | 1010.1 |
| 20260503151003 | 55 | 211 | 6.1 | 13.9 | 0.00 | 0.00 | 0.00 | 55 | 1011.5 |
| 20260503150507 | 55 | 265 | 6.1 | 13.9 | 0.00 | 0.01 | 0.00 | 53 | 1011.5 |
| 20260503131007 | 52 | 230 | 0.9 | 9.6 | 0.00 | 0.08 | 0.00 | 56 | 1012.2 |
| 20260503130500 | 51 | 207 | 3.5 | 19.1 | 0.00 | 0.08 | 0.00 | 55 | 1012.3 |
| 20260503110508 | 0 | 0.0 | 0.0 | 0.00 | 0.12 | 0.00 | 1011.9 | ||
| 20260503090513 | 0 | 0.0 | 0.0 | 0.00 | 0.12 | 0.00 | 1012.7 | ||
| 20260503081515 | 49 | 236 | 2.6 | 8.7 | 0.00 | 0.12 | 0.00 | 49 | 1013.0 |
| 20260503081007 | 49 | 206 | 2.6 | 7.8 | 0.00 | 0.12 | 0.00 | 48 | 1013.0 |
| 20260503080506 | 49 | 250 | 2.6 | 10.4 | 0.00 | 0.12 | 0.00 | 50 | 1013.1 |
| 20260503072509 | 48 | 248 | 2.6 | 6.1 | 0.00 | 0.12 | 0.00 | 49 | 1013.1 |
| 20260503072009 | 48 | 251 | 0.9 | 5.2 | 0.00 | 0.12 | 0.00 | 49 | 1013.2 |
| 20260503071529 | 48 | 246 | 1.7 | 8.7 | 0.00 | 0.12 | 0.00 | 49 | 1013.3 |
| 20260503071008 | 48 | 250 | 2.6 | 8.7 | 0.00 | 0.12 | 0.00 | 49 | 1013.4 |
| 20260503070502 | 48 | 253 | 2.6 | 8.7 | 0.00 | 0.12 | 0.00 | 49 | 1013.5 |
| 20260503055006 | 48 | 281 | 0.9 | 7.0 | 0.00 | 0.12 | 0.00 | 51 | 1013.9 |
| 20260503054521 | 48 | 256 | 1.7 | 7.8 | 0.00 | 0.12 | 0.00 | 50 | 1013.9 |
| 20260503054011 | 48 | 232 | 1.7 | 7.8 | 0.00 | 0.12 | 0.00 | 51 | 1014.0 |
| 20260503053505 | 48 | 266 | 0.9 | 7.0 | 0.00 | 0.12 | 0.00 | 50 | 1014.0 |
| 20260503053031 | 48 | 231 | 2.6 | 7.8 | 0.00 | 0.12 | 0.00 | 50 | 1014.1 |
| 20260503052508 | 48 | 229 | 1.7 | 9.6 | 0.00 | 0.12 | 0.00 | 51 | 1014.1 |
| 20260503052008 | 48 | 301 | 2.6 | 9.6 | 0.00 | 0.13 | 0.00 | 52 | 1014.2 |
| 20260503051526 | 48 | 236 | 0.9 | 9.6 | 0.00 | 0.13 | 0.00 | 52 | 1014.2 |
| 20260503051003 | 48 | 226 | 2.6 | 9.6 | 0.00 | 0.13 | 0.00 | 52 | 1014.2 |
| 20260503050505 | 48 | 263 | 2.6 | 8.7 | 0.00 | 0.13 | 0.00 | 52 | 1014.3 |
| 20260503050007 | 48 | 232 | 3.5 | 9.6 | 0.00 | 0.13 | 0.00 | 51 | 1014.3 |
| 20260503045505 | 48 | 250 | 2.6 | 9.6 | 0.00 | 0.13 | 0.13 | 52 | 1014.3 |
| 20260503045005 | 48 | 268 | 0.9 | 7.0 | 0.00 | 0.13 | 0.13 | 53 | 1014.4 |
| 20260503044522 | 48 | 192 | 1.7 | 7.0 | 0.00 | 0.13 | 0.13 | 52 | 1014.4 |
| 20260503044005 | 48 | 226 | 0.9 | 7.0 | 0.00 | 0.13 | 0.13 | 52 | 1014.4 |
| 20260503043505 | 48 | 245 | 0.9 | 7.8 | 0.00 | 0.13 | 0.13 | 52 | 1014.4 |
| 20260503043016 | 48 | 233 | 0.9 | 7.8 | 0.00 | 0.13 | 0.13 | 51 | 1014.5 |
| 20260503042505 | 48 | 236 | 1.7 | 7.0 | 0.00 | 0.13 | 0.13 | 52 | 1014.5 |
| 20260503042008 | 48 | 262 | 1.7 | 7.0 | 0.00 | 0.13 | 0.13 | 51 | 1014.5 |
| 20260503041522 | 48 | 239 | 1.7 | 5.2 | 0.00 | 0.13 | 0.13 | 51 | 1014.6 |
| 20260503041007 | 48 | 242 | 0.9 | 7.8 | 0.00 | 0.13 | 0.13 | 52 | 1014.6 |
| 20260503040514 | 48 | 234 | 0.9 | 7.8 | 0.00 | 0.13 | 0.13 | 51 | 1014.6 |
| 20260503040014 | 48 | 259 | 1.7 | 7.8 | 0.00 | 0.13 | 0.13 | 51 | 1014.6 |
| 20260503035503 | 49 | 269 | 1.7 | 7.0 | 0.00 | 0.13 | 0.13 | 51 | 1014.7 |
| 20260503035003 | 48 | 288 | 2.6 | 7.0 | 0.00 | 0.13 | 0.13 | 52 | 1014.7 |
| 20260503034512 | 49 | 292 | 1.7 | 7.0 | 0.00 | 0.13 | 0.13 | 51 | 1014.7 |